Regional Weather Roundup
Issued by NWS

Home | Current Version | Previous Version | Text Only | Print | Product List | Glossary On
Versions: 1 2 3 4 5 6 7 8 9 10 11 12 13 14 15 16 17 18 19 20 21 22 23 24 25 26 27 28 29 30 31 32 33 34 35 36 37 38 39 40 41 42 43 44 45 46 47 48 49 50
000
ASUS43 KMPX 300210
RWRMN
WEATHER ROUNDUP FOR MINNESOTA
NATIONAL WEATHER SERVICE TWIN CITIES/CHANHASSEN MN
900 PM CDT TUE JUL 29 2014


NOTE: "FAIR" INDICATES FEW OR NO CLOUDS BELOW 12,000 FEET WITH NO
SIGNIFICANT WEATHER AND/OR OBSTRUCTIONS TO VISIBILITY. N/A MEANS
CURRENT SKY AND/OR WEATHER CONDITIONS ARE NOT AVAILABLE.

MNZ060>063-068>070-300300-
   Twin Cities Metro

CITY           SKY/WX    TMP DP  RH WIND       PRES   REMARKS
TWIN CITIES    PTCLDY    74  53  48 NW10      30.04R
ST PAUL        MOCLDY    72  57  59 N16G25    30.04R
CRYSTAL        MOCLDY    74  53  48 NW9       30.03S
BLAINE         MOCLDY    72  59  64 NW5       30.04S
LAKEVILLE      PTCLDY    68  57  68 W5        30.04S
EDEN PRAIRIE   PTCLDY    71  56  58 NW5       30.03F
SOUTH ST PAUL  MOCLDY    73  56  57 N3        30.03S
LAKE ELMO      CLOUDY    70  59  68 CALM      30.05R
$$
MNZ001>005-007-008-013>017-022>024-027-028-300300-
   Northwest Minnesota

CITY           SKY/WX    TMP DP  RH WIND       PRES   REMARKS
BEMIDJI        CLEAR     64  56  73 W5        30.08S
HALLOCK        CLEAR     70  61  73 NW6       30.08S
ROSEAU         CLEAR     64  57  77 NW5       30.08R
WARROAD        CLEAR     68  55  64 W7        30.07S
THIEF RVR FALL CLEAR     68  57  68 NW5       30.09S
CROOKSTON      CLEAR     68  63  83 N3        30.09S
FOSSTON        CLEAR     64  55  72 NW3       30.10S
DETROIT LAKES  CLEAR     66  55  68 N3        30.11S
MOORHEAD       CLEAR     70  59  68 CALM      30.09S
PARK RAPIDS    CLEAR     64  56  75 NW6       30.09R
$$
MNZ006-009>011-018-025>026-300300-
   North Central Minnesota

CITY           SKY/WX    TMP DP  RH WIND       PRES   REMARKS
BAUDETTE       PTCLDY    68  56  65 NW5       30.06S
FLAG ISLAND    CLEAR     72  57  60 NW10      30.04S
INTL FALLS     MOCLDY    63  59  87 CALM      30.04R
WASKISH        CLEAR     70  57  64 CALM      30.06S
BIG FORK       PTCLDY    63  55  77 W1        30.06F
LONGVILLE      CLEAR     63  57  82 CALM      30.07R
GRAND RAPIDS   CLOUDY    61  57  88 CALM      30.06R
CRANE LAKE     FOG       57  57 100 CALM      30.06S VSB 1/4
ORR            PTCLDY    61  54  77 CALM      30.03F
COOK           MOCLDY    59  57  94 CALM      30.06S
$$
MNZ012-019>021-037-300300-
   Northeast Minnesota

CITY           SKY/WX    TMP DP  RH WIND       PRES   REMARKS
DULUTH         MOCLDY    59  55  87 N3        30.05F
ELY            MOCLDY    55  54  94 CALM      30.05R FOG
HIBBING        PTCLDY    60  54  80 N6        30.05R
EVELETH        HVY RAIN  61  54  77 NE8       30.08R
DULUTH HARBOR  MOCLDY    57  57 100 CALM      30.05S
TWO HARBORS    CLOUDY    57  54  88 CALM      30.02F
SILVER BAY     MOCLDY    55  55 100 CALM      30.02S
GRAND MARAIS     N/A     51  50  96 W3        30.01R
G MARAIS ARPRT PTCLDY    55  52  88 NW5       30.05R
$$
MNZ029>031-032-039>041-046>048-054>057-064-300300-
   West Central Minnesota

CITY           SKY/WX    TMP DP  RH WIND       PRES   REMARKS
FERGUS FALLS   CLEAR     66  52  59 CALM      30.08F
WHEATON        CLEAR     66  55  68 CALM      30.10F
MORRIS         CLEAR     66  59  77 NW5       30.08F
ALEXANDRIA     CLEAR     69  54  58 NW3       30.10S
ELBOW LAKE     FAIR      67  57  72 N5        30.09S
WADENA         CLEAR     63  57  82 NW3       30.09R
GLENWOOD       CLEAR     64  55  72 NW5       30.10S
APPLETON       CLEAR     66  61  82 W3        30.08F
BENSON         CLEAR     66  57  72 CALM      30.08F
ORTONVILLE     CLEAR     70  54  56 NW3       30.09F
MADISON        CLEAR     72  57  60 CALM      30.10S
WILLMAR        FAIR      66  55  68 NW3       30.10S
$$
MNZ033>034-036-042>043-049>051-058-059-300300-
   Central Minnesota

CITY           SKY/WX    TMP DP  RH WIND       PRES   REMARKS
ST CLOUD       CLEAR     67  55  65 NW6       30.06S
SAUK CENTRE    FAIR      67  54  63 NW5       30.08S
PAYNESVILLE    CLEAR     62  55  78 CALM      30.08S
AITKIN         CLEAR     64  55  72 CALM      30.05S
PINE RIVER     CLEAR     66  57  72 CALM      30.10S
BRAINERD       CLEAR     67  55  65 NW3       30.07R
STAPLES        CLEAR     64  55  72 NW3       30.08S
LONG PRAIRIE   FAIR      66  54  63 W5        30.08S
LITTLE FALLS   CLEAR     68  52  56 CALM      30.07R
LITCHFIELD     CLEAR     72  55  56 NW5       30.08S
BUFFALO        CLEAR     70  53  54 NW7       30.06S
MAPLE LAKE     CLEAR     69  57  65 NW5       30.07S
$$
MNZ037-044-045-052-053-300300-
   East Central Minnesota

CITY           SKY/WX    TMP DP  RH WIND       PRES   REMARKS
PRINCETON      CLEAR     66  55  68 NW3       30.05S
MORA           CLEAR     64  57  77 CALM      30.06R
CAMBRIDGE      CLEAR     70  55  60 CALM      30.03R
RUSH CITY      PTCLDY    65  56  73 NE8       30.05R
MOOSE LAKE     RAIN      63  55  77 N16G29    30.05R
HINCKLEY       CLOUDY    68  59  73 CALM      30.04R
CLOQUET        MOCLDY    61  54  77 N5        30.06S
MCGREGOR       MOCLDY    64  54  68 N12G22    30.08R
$$
MNZ071>073-080-081-089-090-097-098-300300-
   Southwest Minnesota

CITY           SKY/WX    TMP DP  RH WIND       PRES   REMARKS
MONTEVIDEO     CLEAR     68  54  60 CALM      30.10S
GRANITE FALLS  CLEAR     64  58  82 W5        30.10F
CANBY          CLEAR     68  55  62 CALM      30.12S HAZE
MARSHALL       CLEAR     68  55  64 NW6       30.09F
REDWOOD FALLS  CLEAR     68  54  60 NW5       30.08S
OLIVIA         CLEAR     68  55  64 NW3       30.08S
PIPESTONE      CLEAR     70  54  56 N5        30.13R
WINDOM         CLEAR     64  57  77 NW5       30.11R
WORTHINGTON    PTCLDY    64  57  77 NW3       30.13S
JACKSON        CLEAR     63  57  82 CALM      30.11S
TRACY          CLEAR     66  57  73 CALM      30.11S
SLAYTON        CLEAR     66  56  71 CALM      30.13S
$$
MNZ065>067-074>077-082>085-091>093-300300-
   South Central Minnesota

CITY           SKY/WX    TMP DP  RH WIND       PRES   REMARKS
MANKATO        CLEAR     70  54  56 NW7       30.07S
NEW ULM        CLEAR     66  55  68 NW5       30.08S
ST JAMES       CLEAR     64  57  77 W5        30.09S
FAIRMONT       CLEAR     66  52  59 NW5       30.09S
GLENCOE        CLEAR     70  55  58 W7        30.06S
FARIBAULT      CLEAR     72  52  49 W5        30.06S
OWATONNA       CLEAR     64  55  72 W5        30.06F
WASECA         CLEAR     61  52  72 W5        30.08S
ALBERT LEA     CLEAR     66  55  68 CALM      30.07S
$$
MNZ078>079-086>088-094>096-300300-
   Southeast Minnesota

CITY           SKY/WX    TMP DP  RH WIND       PRES   REMARKS
ROCHESTER      CLOUDY    66  56  70 W6        30.07S
RED WING       PTCLDY    64  63  94 CALM      30.02F
STANTON        CLOUDY    68  59  72 E9        30.04R
DODGE CENTER   MOCLDY    70  55  60 W7        30.06F
WINONA         MOCLDY    70  59  68 SE3       30.04S
AUSTIN         CLEAR     66  54  63 W5        30.06F
PRESTON        PTCLDY    64  60  85 NW6       30.06S
$$
ABBREVIATIONS USED IN REMARKS
   TC - TEMPERATURES IN CELSIUS
  WCI - WIND CHILL INDEX
   HX - HEAT INDEX
  VSB - VISIBILITY
$$


USA.gov is the U.S. government's official web portal to all federal, state and local government web resources and services.